Weather in Cheboksary

Russia / Chuvash Republic     56°08′46″N   47°15′03″E
temp.,
°C
wind,
m/s
gust,
m/s
humid.,
%
clouds,
%
prec.,
mm/h
press.,
hPa
HPBL,
m
18 april, sun
sun1800:00+3ne27842 0.0 1024147
03:00+2ene23860 0.0 102452
06:00+3ne26833 0.0 1024155
09:00+10ne35542 0.0 1023652
12:00+13ne56425 0.0 10231633
15:00+13ene664480 0.0 10241933
18:00+8ene69655 0.0 1025867
21:00+5ene4116665 0.0 1027650
19 april, mon
mon1900:00+3ene4115980 0.0 1028565
03:00+1ene41168100 0.0 1028565
06:00+1ene51366100 0.0 1029692
09:00+4e71042100 0.0 10301129
12:00+7e71030100 0.0 10291550
15:00+8e6929100 0.0 10291706
18:00+6e5103597 0.0 10291350
21:00+3e5134465 0.0 1031659
20 april, tue
tue2000:00+2e5134893 0.0 1031544
03:000e412565 0.0 1032398
06:000e412565 0.0 1032462
09:00+6ese69390 0.0 1032955
12:00+9ese79280 0.0 10311368
15:00+9se68270 0.0 10311512
18:00+7ese611365 0.0 10291125
21:00+4ese5144697 0.0 1029615
21 april, wed
wed2100:00+3ese51548100 0.0 1028664
03:00+3se61648100 0.0 1027834
06:00+3se71749100 0.0 1025855
09:00+6se81743100 0.1 1024915
12:00+5se81652100 0.4 10241080
15:00+3se81781100 3.2 1023967
18:00+2se81792100 3.0 1023904
21:00+3sse71592100 3.9 1023746
22 april, thu
thu2200:00+3sse61492100 0.3 1023713
03:00+3sse51193100 0.4 1024524
06:00+4sse41193100 0.0 1024546
09:00+7s51087100 0.0 1025653
12:00+7s4989100 0.1 1026514
15:00+7sse489185 0.1 1026545
18:00+7sse41091100 0.0 1028554
21:00+6sse499590 0.0 1028283